Flag for U.S.A. Weather past 2 weeks in Los Angeles, California, U.S.A.

Now
72 °F

Sunny.


Feels Like: 73 °F
Forecast: 67 / 85 °F
Wind: 5 mph from North

Location: Los Angeles / USC Campus Downtown

Current Time: Aug 1, 2015 at 9:46:10 PM

Latest Report: Aug 1, 2015 at 7:47 PM


Visibility: 10 mi

Pressure: 29.88 "Hg

Humidity: 76%

Dew point: 64 °F

Location of Los AngelesLocation

Historic Weather in Los Angeles — Graph

°F

Los Angeles temperature yesterday

Maximum temperature yesterday: 84 °F (at 12:47 PM)
Minimum temperature yesterday: 68 °F (at 3:47 AM)
Average temperature yesterday: 73 °F

Past Weeks' High & Low Weather Summary

 TemperatureHumidityPressure
High90 °F (Jul 19, 10:47 AM)93% (Aug 1, 1:47 AM)30.07 "Hg (Aug 1, 1:47 AM)
Low65 °F (Jul 18, 1:47 AM)31% (Jul 18, 12:47 PM)29.81 "Hg (Jul 17, 7:47 PM)
Average74 °F73%29.93 "Hg
* Reported Jul 17 7:47 PM — Aug 1 7:47 PM, Los Angeles, Weather by CustomWeather, © 2015

Note: Actual official high and low records may vary slightly from our data, if they occured in-between our weather recording intervals... More about our weather records

Advertising

Los Angeles weather history for previous 24 hours

 ConditionsComfort  
Time TempWeatherWind HumidityBarometerVisibility
7:47 PM
Sat, Aug 1
72 °FSunny.5 mph76%29.88 "Hg10 mi
6:47 PM76 °FSunny.3 mph67%29.88 "Hg10 mi
5:47 PM78 °FSunny.3 mph62%29.87 "Hg10 mi
4:47 PM78 °FSunny.N/A60%29.88 "Hg10 mi
3:47 PM78 °FSunny.9 mph60%29.89 "Hg10 mi
2:47 PM78 °FSunny.6 mph60%29.90 "Hg10 mi
1:47 PM79 °FSunny.6 mph58%29.91 "Hg10 mi
12:47 PM81 °FSunny.6 mph56%29.93 "Hg10 mi
11:47 AM83 °FSunny.No wind53%29.94 "Hg10 mi
10:47 AM80 °FSunny.No wind56%29.95 "Hg10 mi
9:47 AM76 °FScattered clouds.No wind67%29.97 "Hg10 mi
7:52 AM70 °FOvercast.No wind76%29.98 "Hg10 mi
7:47 AM70 °FOvercast.No wind76%29.97 "Hg10 mi
6:47 AM69 °FOvercast.No wind79%29.97 "Hg10 mi
5:47 AM68 °FOvercast.No wind84%29.95 "Hg9 mi
4:47 AM68 °FFog.No wind87%29.95 "Hg6 mi
3:47 AM68 °FFog.No wind87%29.95 "Hg6 mi
2:47 AM68 °FFog.No wind87%29.96 "Hg6 mi
1:47 AM67 °FFog.No wind93%29.96 "Hg5 mi
12:47 AM68 °FLow clouds.No wind90%29.96 "Hg8 mi
11:47 PM
Fri, Jul 31
68 °FLow clouds.No wind87%29.95 "Hg9 mi
10:47 PM68 °FPassing clouds.No wind87%29.95 "Hg10 mi
9:47 PM69 °FPassing clouds.5 mph84%29.96 "Hg10 mi
Weather by CustomWeather, © 2015

See weather overviewHow to use our weather pages